FW7738 Weather Reports


time (UTC)temp
F
wind
direction
speed
knots
gust
knots
rain 1hr
in
rain 24hr
in
rain mn
in
humidity
%
barometer
mb
20260505002029 60 356 0.0 0.9 0.00 0.00 0.00 91 1011.0
20260505001025 60 6 0.0 0.9 0.00 0.00 0.00 90 1010.9
20260505000020 60 0.0 0.0 0.00 0.00 0.00 90 1011.0
20260504235015 61 0.0 0.0 0.00 0.00 0.00 90 1010.9
20260504234051 61 0.0 0.0 0.00 0.00 0.00 89 1010.9
20260504233026 61 0.0 0.0 0.00 0.00 0.00 89 1010.9
20260504232021 61 0.0 0.0 0.00 0.00 0.00 89 1011.0
20260504231017 61 0.0 0.0 0.00 0.00 0.00 89 1010.9
20260504230032 61 0.0 0.0 0.00 0.00 0.00 89 1010.9
20260504225027 62 0.0 0.0 0.00 0.00 0.00 89 1010.8
20260504224023 62 0.0 0.0 0.00 0.00 0.00 89 1010.8
20260504223018 62 56 0.0 0.9 0.00 0.00 0.00 89 1010.8
20260504222033 62 0.0 0.0 0.00 0.00 0.00 89 1010.8
20260504221049 62 78 0.9 0.9 0.00 0.00 0.00 89 1010.7
20260504220024 62 75 0.0 0.9 0.00 0.00 0.00 89 1010.6
20260504215020 62 0.0 0.0 0.00 0.00 0.00 88 1010.7
20260504214036 62 81 0.9 0.9 0.00 0.00 0.00 88 1010.6
20260504213031 62 0.0 0.0 0.00 0.00 0.00 88 1010.6
20260504212047 62 78 0.0 1.7 0.00 0.00 0.00 88 1010.6
20260504211042 63 89 1.7 2.6 0.00 0.00 0.00 88 1010.5
20260504210018 63 86 0.9 1.7 0.00 0.00 0.00 88 1010.6
20260504205033 63 81 1.7 2.6 0.00 0.00 0.00 87 1010.4
20260504204028 64 65 0.9 2.6 0.00 0.00 0.00 87 1010.4
20260504203023 64 59 1.7 6.1 0.00 0.00 0.00 87 1010.2
20260504202019 64 62 1.7 7.0 0.00 0.00 0.00 88 1010.1
20260504201034 64 57 1.7 7.0 0.00 0.00 0.00 88 1009.8
20260504200030 64 51 1.7 6.1 0.00 0.00 0.00 87 1009.6
20260504195025 64 66 2.6 7.0 0.00 0.00 0.00 86 1009.5
20260504194020 65 70 1.7 6.1 0.00 0.00 0.00 85 1009.4
20260504193016 65 57 1.7 5.2 0.00 0.00 0.00 85 1009.1
20260504192031 65 71 1.7 7.0 0.00 0.00 0.00 84 1009.0
20260504191027 65 64 1.7 6.1 0.00 0.00 0.00 83 1008.9
20260504190023 65 60 3.5 7.8 0.00 0.00 0.00 83 1009.0
20260504185018 66 61 1.7 7.8 0.00 0.00 0.00 81 1008.8
20260504184033 67 50 4.3 8.7 0.00 0.00 0.00 80 1008.8
20260504183029 67 56 4.3 9.6 0.00 0.00 0.00 79 1008.6
20260504182024 67 57 4.3 13.0 0.00 0.00 0.00 79 1008.6
20260504181020 67 62 4.3 13.9 0.00 0.00 0.00 80 1008.5
20260504180035 67 68 3.5 11.3 0.00 0.00 0.00 80 1008.4
20260504175030 68 62 2.6 8.7 0.00 0.00 0.00 78 1008.4
20260504174025 67 82 3.5 12.2 0.00 0.00 0.00 78 1008.1
20260504173021 67 88 5.2 9.6 0.00 0.00 0.00 79 1008.2
20260504172016 67 86 3.5 8.7 0.00 0.00 0.00 78 1008.1
20260504171052 68 91 5.2 13.0 0.00 0.00 0.00 78 1007.9
20260504151016 70 114 6.1 13.0 0.00 0.00 0.00 72 1008.1
20260504141029 71 161 6.1 11.3 0.00 0.00 0.00 68 1008.3
20260504081024 66 0.0 0.0 0.00 0.00 0.00 75 1011.1
20260504050017 62 340 0.9 0.9 0.00 0.00 0.00 86 1010.9
20260504045033 62 347 0.9 1.7 0.00 0.00 0.00 87 1010.8
20260504044028 62 346 0.9 0.9 0.00 0.00 0.00 87 1010.8
20260504043044 63 346 0.9 1.7 0.00 0.00 0.00 87 1010.8
20260504042019 63 1 0.9 1.7 0.00 0.00 0.00 87 1010.8
20260504041034 63 4 0.0 0.9 0.00 0.00 0.00 86 1011.0
20260504040029 63 12 0.0 0.9 0.00 0.00 0.00 86 1011.0
20260504035025 63 12 0.0 0.9 0.00 0.00 0.00 86 1011.2
20260504034020 63 24 0.0 0.9 0.00 0.00 0.00 85 1011.4
20260504033015 63 38 0.0 0.9 0.00 0.00 0.00 85 1011.5
20260504032031 63 0.0 0.0 0.00 0.00 0.00 85 1011.5
20260504031026 63 0.0 0.0 0.00 0.00 0.00 85 1011.7
20260504030021 63 73 0.0 0.9 0.00 0.00 0.00 86 1011.7
20260504025017 63 0.0 0.0 0.00 0.00 0.00 86 1011.7
20260504024033 63 0.0 0.0 0.00 0.00 0.00 86 1011.7
20260504023028 63 0.0 0.0 0.00 0.00 0.00 86 1011.7
20260504022024 63 20 0.0 0.9 0.00 0.00 0.00 87 1011.6
20260504021039 63 0.0 0.0 0.00 0.00 0.00 87 1011.6
20260504020055 63 0.0 0.0 0.00 0.00 0.00 87 1011.6
20260504015030 63 0.0 0.0 0.00 0.00 0.00 87 1011.6
20260504014025 63 0.0 0.0 0.00 0.00 0.00 87 1011.6
20260504013020 63 352 0.9 0.9 0.00 0.00 0.00 88 1011.6
20260504012035 63 350 0.9 1.7 0.00 0.00 0.00 88 1011.7
20260504011031 63 351 0.9 2.6 0.00 0.00 0.00 87 1011.7
20260504010026 63 345 1.7 3.5 0.00 0.00 0.00 86 1011.7
20260504005022 63 355 0.9 0.9 0.00 0.00 0.00 86 1011.8
20260504004057 63 19 0.9 1.7 0.00 0.00 0.00 85 1011.8
20260504003032 63 70 0.9 0.9 0.00 0.00 0.00 85 1011.9